Sitka, AK

3:59 PM AKST on January 18, 2017 (GMT -0900)
Sitka Rocky Gutierrez

Weather History for PASI - February, 2012

Change the Weather History Date:

Thursday, February 23, 2012

  Actual Average Record
Temperature  
Mean Temperature 32 °F -  
Max Temperature 35 °F 42 °F 50 °F (1966)
Min Temperature 28 °F 32 °F 13 °F (1982)
Degree Days  
Heating Degree Days 34    
Moisture  
Dew Point 30 °F    
Average Humidity 92    
Maximum Humidity 100    
Minimum Humidity 81    
Precipitation  
Precipitation 0.05 in - - ()
Sea Level Pressure  
Sea Level Pressure 30.21 in    
Wind  
Wind Speed 5 mph (ENE)    
Max Wind Speed 16 mph    
Max Gust Speed 22 mph    
Visibility 8 miles    
Events Rain , Snow    
Averages and records for this station are not official NWS values.
T = Trace of Precipitation, MM = Missing Value Source: NWS Daily Summary

Daily Weather History Graph

Daily Weather History Graph

Search for Another Location

Airport or City:

Trip Planner

Search our weather history database for the weather conditions in past years. The results will help you decide how hot, cold, wet, or windy it might be!

Date:

Astronomy

Feb. 23, 2012 Rise Set
Actual Time 7:10 AM AKST 5:19 PM AKST
Civil Twilight 6:31 AM AKST 5:58 PM AKST
Nautical Twilight 5:47 AM AKST 6:43 PM AKST
Astronomical Twilight 5:03 AM AKST 7:27 PM AKST
Moon 7:07 AM AKST (2/23) 8:13 PM AKST (2/23)
Length of Visible Light 11h 27m
Length of Day
10h 09m
Waxing Crescent, 4% of the Moon is Illuminated
Feb 23
Waxing Crescent
Feb 29
First Quarter
Mar 8
Full
Mar 14
Last Quarter
Mar 22
New

Hourly Weather History & Observations

Time (AKST) Temp. Windchill Dew Point Humidity Pressure Visibility Wind Dir Wind Speed Gust Speed Precip Events Conditions
12:53 AM 33.1 °F 27.7 °F 30.9 °F 92% 30.20 in 10.0 mi NNE 5.8 mph - 0.00 in   Overcast
1:06 AM 33.8 °F - 30.2 °F 87% 30.21 in 10.0 mi Calm Calm - N/A   Overcast
1:13 AM 33.8 °F - 30.2 °F 87% 30.21 in 10.0 mi Calm Calm - N/A   Overcast
1:24 AM 33.8 °F - 32.0 °F 93% 30.21 in 9.0 mi Calm Calm - 0.00 in Rain Light Rain
1:45 AM 32.0 °F 27.5 °F 30.2 °F 93% 30.22 in 10.0 mi NE 4.6 mph - 0.00 in   Scattered Clouds
1:53 AM 32.0 °F 28.7 °F 30.0 °F 92% 30.22 in 10.0 mi ENE 3.5 mph - 0.00 in   Mostly Cloudy
2:51 AM 35.6 °F 28.6 °F 30.2 °F 81% 30.22 in 6.0 mi NW 9.2 mph 21.9 mph 0.01 in Snow Light Snow
2:53 AM 34.0 °F 27.2 °F 30.0 °F 85% 30.22 in 6.0 mi NW 8.1 mph - 0.01 in Snow Light Snow
3:53 AM 33.1 °F - 30.0 °F 89% 30.22 in 10.0 mi Calm Calm - 0.00 in   Scattered Clouds
4:53 AM 35.1 °F 27.9 °F 30.0 °F 82% 30.23 in 10.0 mi West 9.2 mph - N/A   Mostly Cloudy
5:11 AM 33.8 °F 30.8 °F 30.2 °F 87% 30.22 in 2.5 mi North 3.5 mph - 0.01 in Snow Light Snow
5:18 AM 32.0 °F 27.5 °F 28.4 °F 87% 30.22 in 8.0 mi ENE 4.6 mph - 0.01 in Snow Light Snow
5:25 AM 30.2 °F 26.7 °F 28.4 °F 93% 30.22 in 10.0 mi ENE 3.5 mph - 0.01 in   Mostly Cloudy
5:53 AM 32.0 °F 23.6 °F 30.9 °F 96% 30.23 in 6.0 mi West 10.4 mph 16.1 mph 0.01 in Snow Light Snow
5:56 AM 32.0 °F 22.1 °F 30.2 °F 93% 30.23 in 2.5 mi West 13.8 mph 17.3 mph 0.00 in Snow Light Snow
5:59 AM 32.0 °F 21.2 °F 30.2 °F 93% 30.23 in 1.5 mi WNW 16.1 mph - 0.01 in Snow Light Snow
6:08 AM 32.0 °F 27.5 °F 30.2 °F 93% 30.22 in 1.5 mi NNW 4.6 mph - 0.01 in Snow Light Snow
6:16 AM 32.0 °F - 30.2 °F 93% 30.23 in 4.0 mi Calm Calm - 0.01 in Snow Light Snow
6:37 AM 30.2 °F 25.4 °F 30.2 °F 100% 30.22 in 8.0 mi ENE 4.6 mph - 0.01 in Snow Light Snow
6:53 AM 30.9 °F 26.2 °F 30.0 °F 96% 30.23 in 10.0 mi East 4.6 mph - 0.01 in   Overcast
7:19 AM 32.0 °F 28.7 °F 30.2 °F 93% 30.23 in 10.0 mi SE 3.5 mph - N/A   Overcast
7:51 AM 30.2 °F 24.3 °F 30.2 °F 100% 30.23 in 10.0 mi East 5.8 mph - N/A   Mostly Cloudy
7:53 AM 30.9 °F 25.2 °F 30.0 °F 96% 30.23 in 10.0 mi East 5.8 mph - N/A   Mostly Cloudy
8:46 AM 32.0 °F 27.5 °F 30.2 °F 93% 30.23 in 2.5 mi NE 4.6 mph - 0.00 in Snow Light Snow
8:53 AM 32.0 °F 26.4 °F 30.0 °F 92% 30.23 in 1.0 mi East 5.8 mph - 0.00 in Snow Light Snow
8:55 AM 32.0 °F 27.5 °F 30.2 °F 93% 30.23 in 3.0 mi East 4.6 mph - 0.00 in Snow Light Snow
9:53 AM 32.0 °F 25.6 °F 30.9 °F 96% 30.25 in 5.0 mi ESE 6.9 mph - 0.00 in Snow Light Snow
10:09 AM 32.0 °F 23.6 °F 32.0 °F 100% 30.25 in 5.0 mi East 10.4 mph - 0.01 in Snow Light Snow
10:21 AM 33.8 °F 27.7 °F 32.0 °F 93% 30.25 in 10.0 mi East 6.9 mph - 0.01 in   Mostly Cloudy
10:53 AM 33.1 °F 24.9 °F 32.0 °F 96% 30.25 in 10.0 mi East 10.4 mph - 0.01 in   Mostly Cloudy
11:53 AM 34.0 °F 28.8 °F 32.0 °F 92% 30.24 in 10.0 mi East 5.8 mph - 0.00 in   Scattered Clouds
12:25 PM 33.8 °F 29.6 °F 30.2 °F 87% 30.24 in 2.5 mi SSE 4.6 mph - 0.00 in Snow Light Snow
12:32 PM 33.8 °F 30.8 °F 30.2 °F 87% 30.24 in 3.0 mi South 3.5 mph - 0.00 in Snow Light Snow
12:53 PM 33.1 °F - 30.9 °F 92% 30.24 in 1.8 mi Calm Calm - 0.01 in Snow Light Snow
1:12 PM 33.8 °F 27.7 °F 33.8 °F 100% 30.23 in 3.0 mi NE 6.9 mph - 0.00 in Snow Light Snow
1:53 PM 34.0 °F 28.0 °F 32.0 °F 92% 30.22 in 10.0 mi ESE 6.9 mph - 0.00 in   Mostly Cloudy
2:00 PM 33.8 °F 27.7 °F 32.0 °F 93% 30.22 in 10.0 mi East 6.9 mph - N/A   Mostly Cloudy
2:53 PM 34.0 °F 27.2 °F 30.9 °F 89% 30.20 in 10.0 mi ESE 8.1 mph - N/A   Scattered Clouds
3:53 PM 34.0 °F 29.8 °F 30.0 °F 85% 30.20 in 10.0 mi East 4.6 mph - N/A   Mostly Cloudy
4:53 PM 34.0 °F 28.0 °F 30.0 °F 85% 30.18 in 10.0 mi SE 6.9 mph - N/A   Overcast
5:53 PM 32.0 °F 26.4 °F 30.0 °F 92% 30.16 in 10.0 mi East 5.8 mph - N/A   Partly Cloudy
6:53 PM 33.1 °F 26.1 °F 30.9 °F 92% 30.15 in 10.0 mi NW 8.1 mph - N/A   Partly Cloudy
7:33 PM 32.0 °F 26.4 °F 30.2 °F 93% 30.14 in 10.0 mi NNW 5.8 mph - N/A   Partly Cloudy
7:53 PM 30.9 °F 27.5 °F 30.0 °F 96% 30.13 in 10.0 mi East 3.5 mph - N/A   Clear
8:53 PM 30.0 °F 24.1 °F 28.9 °F 96% 30.11 in 10.0 mi East 5.8 mph - N/A   Clear
9:53 PM 28.9 °F 25.2 °F 28.0 °F 96% 30.09 in 10.0 mi East 3.5 mph - N/A   Clear
10:53 PM 28.9 °F 25.2 °F 28.9 °F 100% 30.08 in 10.0 mi East 3.5 mph - N/A   Mostly Cloudy
11:53 PM 28.9 °F - 28.0 °F 96% 30.05 in 10.0 mi Calm Calm - N/A   Clear